Location: Table Mountain
(47.2500°N, 120.5778°W)
Time: 22:10:33
(UTC-08:00)

Envisat - Pass Details

Date: 16 October 2017
Orbit: 764 x 766 km, 98.2° (Epoch: 16 December)

Event Time Altitude Azimuth Distance (km) Brightness Sun altitude
Exits shadow 21:06:44 58° 265° (W) 889 3.4 -30.0°
Drops below altitude 10° 21:11:40 10° 339° (NNW) 2,312 5.9 -30.8°
Sets 21:14:02 0° 343° (NNW) 3,244 6.7 -31.2°
